| time (UTC) | temp C | wind direction | speed KPH | gust KPH | rain 1hr cm | rain 24hr cm | rain mn cm | humidity % | barometer mb |
| 20260506203043 | 10 | 94 | 1.6 | 4.8 | 0.00 | 0.00 | 0.00 | 59 | 1012.2 |
| 20260506201532 | 10 | 109 | 1.6 | 3.2 | 0.00 | 0.00 | 0.00 | 58 | 1012.0 |
| 20260506200044 | 11 | 120 | 1.6 | 4.8 | 0.00 | 0.00 | 0.00 | 57 | 1011.9 |
| 20260506194531 | 11 | 129 | 1.6 | 4.8 | 0.00 | 0.00 | 0.00 | 54 | 1011.9 |
| 20260506193032 | 11 | 129 | 0.0 | 3.2 | 0.00 | 0.00 | 0.00 | 52 | 1011.8 |
| 20260506191530 | 12 | 129 | 1.6 | 6.4 | 0.00 | 0.00 | 0.00 | 51 | 1011.7 |
| 20260506190036 | 12 | 124 | 1.6 | 6.4 | 0.00 | 0.00 | 0.00 | 49 | 1011.6 |
| 20260506184531 | 13 | 135 | 1.6 | 6.4 | 0.00 | 0.00 | 0.00 | 46 | 1011.6 |
| 20260506183031 | 13 | 97 | 4.8 | 9.7 | 0.00 | 0.00 | 0.00 | 45 | 1011.6 |
| 20260506181534 | 13 | 133 | 3.2 | 14.5 | 0.00 | 0.00 | 0.00 | 43 | 1011.6 |
| 20260506180035 | 15 | 124 | 4.8 | 9.7 | 0.00 | 0.00 | 0.00 | 41 | 1011.6 |
| 20260506174531 | 15 | 118 | 4.8 | 11.3 | 0.00 | 0.08 | 0.00 | 41 | 1011.7 |
| 20260506173039 | 15 | 143 | 4.8 | 14.5 | 0.00 | 0.08 | 0.00 | 41 | 1011.8 |
| 20260506171534 | 15 | 180 | 1.6 | 12.9 | 0.00 | 0.08 | 0.00 | 42 | 1011.7 |
| 20260506170028 | 15 | 167 | 4.8 | 12.9 | 0.00 | 0.08 | 0.00 | 43 | 1011.8 |
| 20260506164530 | 16 | 144 | 6.4 | 16.1 | 0.00 | 0.18 | 0.00 | 41 | 1011.8 |
| 20260506163050 | 16 | 0 | 1.6 | 19.3 | 0.00 | 0.18 | 0.00 | 42 | 1011.8 |
| 20260506161531 | 16 | 124 | 4.8 | 17.7 | 0.00 | 0.18 | 0.00 | 42 | 1011.8 |
| 20260506160031 | 16 | 136 | 3.2 | 9.7 | 0.00 | 0.18 | 0.00 | 41 | 1011.8 |
| 20260506154537 | 15 | 238 | 3.2 | 11.3 | 0.00 | 0.28 | 0.00 | 42 | 1012.0 |
| 20260506153032 | 16 | 178 | 3.2 | 16.1 | 0.00 | 0.28 | 0.00 | 45 | 1012.2 |
| 20260506151538 | 15 | 165 | 1.6 | 9.7 | 0.00 | 0.28 | 0.00 | 46 | 1012.2 |
| 20260506150032 | 14 | 149 | 4.8 | 24.1 | 0.00 | 0.28 | 0.00 | 46 | 1012.5 |
| 20260506144529 | 15 | 137 | 4.8 | 12.9 | 0.00 | 0.28 | 0.00 | 44 | 1012.6 |
| 20260506143032 | 15 | 122 | 1.6 | 12.9 | 0.00 | 0.28 | 0.00 | 43 | 1012.6 |
| 20260506141529 | 15 | 94 | 6.4 | 17.7 | 0.00 | 0.28 | 0.00 | 44 | 1012.7 |
| 20260506140035 | 15 | 91 | 6.4 | 14.5 | 0.00 | 0.28 | 0.00 | 42 | 1012.8 |
| 20260506134532 | 15 | 127 | 3.2 | 8.0 | 0.00 | 0.28 | 0.00 | 47 | 1013.0 |
| 20260506133029 | 13 | 202 | 0.0 | 12.9 | 0.00 | 0.28 | 0.00 | 50 | 1013.1 |
| 20260506131535 | 14 | 133 | 4.8 | 11.3 | 0.00 | 0.28 | 0.00 | 51 | 1013.1 |
| 20260506130030 | 13 | 180 | 3.2 | 9.7 | 0.00 | 0.28 | 0.00 | 54 | 1013.3 |
| 20260506124532 | 12 | 0 | 1.6 | 9.7 | 0.00 | 0.28 | 0.00 | 53 | 1013.5 |
| 20260506123032 | 12 | 165 | 1.6 | 9.7 | 0.00 | 0.28 | 0.00 | 54 | 1013.7 |
| 20260506121532 | 12 | 142 | 3.2 | 6.4 | 0.00 | 0.28 | 0.00 | 55 | 1013.8 |
| 20260506120034 | 12 | 0 | 0.0 | 6.4 | 0.00 | 0.28 | 0.00 | 59 | 1013.9 |
| 20260506114531 | 13 | 95 | 1.6 | 6.4 | 0.00 | 0.28 | 0.00 | 56 | 1014.0 |
| 20260506113030 | 11 | 211 | 4.8 | 9.7 | 0.00 | 0.28 | 0.00 | 57 | 1014.1 |
| 20260506111534 | 11 | 280 | 1.6 | 12.9 | 0.00 | 0.28 | 0.00 | 57 | 1014.1 |
| 20260506110030 | 12 | 285 | 3.2 | 8.0 | 0.00 | 0.28 | 0.00 | 59 | 1014.1 |
| 20260506104529 | 12 | 0 | 0.0 | 6.4 | 0.00 | 0.28 | 0.00 | 57 | 1014.1 |
| 20260506103031 | 12 | 82 | 0.0 | 11.3 | 0.00 | 0.28 | 0.00 | 57 | 1014.2 |
| 20260506101528 | 12 | 20 | 1.6 | 8.0 | 0.00 | 0.28 | 0.00 | 57 | 1014.2 |
| 20260506100031 | 12 | 71 | 4.8 | 11.3 | 0.00 | 0.28 | 0.00 | 54 | 1014.2 |
| 20260506094532 | 12 | 94 | 3.2 | 6.4 | 0.00 | 0.28 | 0.00 | 57 | 1014.3 |
| 20260506093032 | 11 | 104 | 4.8 | 9.7 | 0.00 | 0.28 | 0.00 | 59 | 1014.2 |
| 20260506091530 | 11 | 61 | 0.0 | 6.4 | 0.00 | 0.28 | 0.00 | 63 | 1014.2 |
| 20260506090029 | 11 | 322 | 3.2 | 8.0 | 0.00 | 0.28 | 0.00 | 63 | 1014.2 |
| 20260506084537 | 10 | 317 | 3.2 | 8.0 | 0.00 | 0.28 | 0.00 | 67 | 1014.1 |
| 20260506083032 | 9 | 316 | 1.6 | 6.4 | 0.00 | 0.28 | 0.00 | 67 | 1014.1 |
| 20260506081530 | 8 | 300 | 1.6 | 6.4 | 0.00 | 0.28 | 0.00 | 71 | 1014.2 |
| 20260506073031 | 8 | 340 | 0.0 | 4.8 | 0.00 | 0.28 | 0.00 | 73 | 1014.2 |
| 20260506071531 | 7 | 345 | 1.6 | 6.4 | 0.00 | 0.28 | 0.00 | 75 | 1014.1 |
| 20260506061531 | 3 | 360 | 1.6 | 8.0 | 0.00 | 0.28 | 0.00 | 86 | 1014.1 |
| 20260506044532 | 2 | 348 | 1.6 | 4.8 | 0.00 | 0.28 | 0.00 | 86 | 1013.8 |
| 20260506043031 | 2 | 360 | 0.0 | 8.0 | 0.00 | 0.28 | 0.00 | 87 | 1013.9 |
| 20260506041549 | 2 | 333 | 3.2 | 8.0 | 0.00 | 0.28 | 0.00 | 86 | 1014.1 |
| 20260506040032 | 2 | 329 | 3.2 | 8.0 | 0.00 | 0.28 | 0.00 | 87 | 1014.1 |
| 20260506034546 | 2 | 0 | 0.0 | 4.8 | 0.00 | 0.28 | 0.00 | 88 | 1014.2 |
| 20260506033030 | 2 | 0 | 0.0 | 4.8 | 0.00 | 0.28 | 0.00 | 87 | 1014.3 |
| 20260506031529 | 2 | 327 | 1.6 | 4.8 | 0.00 | 0.28 | 0.00 | 88 | 1014.2 |
| 20260506030029 | 2 | 332 | 0.0 | 4.8 | 0.00 | 0.28 | 0.00 | 88 | 1014.1 |
| 20260506024531 | 2 | 327 | 1.6 | 6.4 | 0.00 | 0.28 | 0.00 | 88 | 1014.2 |
| 20260506023030 | 2 | 0 | 1.6 | 6.4 | 0.00 | 0.28 | 0.00 | 88 | 1014.1 |
| 20260506021532 | 2 | 331 | 1.6 | 6.4 | 0.00 | 0.28 | 0.00 | 89 | 1014.2 |
| 20260506020032 | 2 | 355 | 1.6 | 4.8 | 0.00 | 0.28 | 0.00 | 88 | 1014.3 |
| 20260506014531 | 3 | 310 | 0.0 | 4.8 | 0.00 | 0.28 | 0.00 | 87 | 1014.3 |
| 20260506013041 | 3 | 322 | 0.0 | 3.2 | 0.00 | 0.28 | 0.00 | 87 | 1014.4 |
| 20260506011540 | 3 | 344 | 1.6 | 4.8 | 0.00 | 0.28 | 0.00 | 88 | 1014.5 |
| 20260506010033 | 3 | 0 | 1.6 | 4.8 | 0.00 | 0.28 | 0.00 | 87 | 1014.6 |
| 20260506004530 | 3 | 313 | 1.6 | 6.4 | 0.00 | 0.28 | 0.00 | 87 | 1014.9 |
| 20260506003032 | 3 | 309 | 3.2 | 6.4 | 0.00 | 0.28 | 0.00 | 87 | 1014.9 |
| 20260506001529 | 3 | 345 | 1.6 | 4.8 | 0.00 | 0.28 | 0.00 | 86 | 1014.8 |
| 20260506000031 | 3 | 0 | 0.0 | 3.2 | 0.00 | 0.28 | 0.00 | 86 | 1015.0 |
| 20260505234531 | 3 | 0 | 0.0 | 6.4 | 0.00 | 0.28 | 0.00 | 85 | 1015.0 |
| 20260505233032 | 5 | 322 | 0.0 | 3.2 | 0.00 | 0.28 | 0.00 | 83 | 1015.1 |
| 20260505231531 | 4 | 360 | 1.6 | 8.0 | 0.00 | 0.28 | 0.00 | 85 | 1015.1 |
| 20260505230030 | 4 | 332 | 1.6 | 6.4 | 0.00 | 0.28 | 0.00 | 86 | 1015.1 |
| 20260505224533 | 4 | 19 | 4.8 | 9.7 | 0.00 | 0.28 | 0.00 | 86 | 1015.2 |
| 20260505223037 | 4 | 300 | 3.2 | 11.3 | 0.00 | 0.28 | 0.00 | 85 | 1015.2 |
| 20260505221530 | 5 | 328 | 1.6 | 3.2 | 0.00 | 0.28 | 0.00 | 85 | 1015.3 |
| 20260505220048 | 5 | 327 | 1.6 | 4.8 | 0.00 | 0.28 | 0.00 | 84 | 1015.5 |
| 20260505214535 | 5 | 329 | 3.2 | 6.4 | 0.00 | 0.28 | 0.28 | 83 | 1015.4 |
| 20260505213034 | 5 | 350 | 1.6 | 8.0 | 0.00 | 0.28 | 0.28 | 82 | 1015.4 |
| 20260505211531 | 6 | 340 | 3.2 | 8.0 | 0.00 | 0.28 | 0.28 | 81 | 1015.4 |
| 20260505210033 | 6 | 0 | 1.6 | 6.4 | 0.00 | 0.28 | 0.28 | 82 | 1015.3 |
| 20260505204530 | 6 | 0 | 0.0 | 3.2 | 0.00 | 0.28 | 0.28 | 82 | 1015.1 |